Find Starlink 30588

NORAD ID: 58062 Int'l Des: 2023-158 Owner: SPXS Country: US Constellation: starlink operational
LEOCIRCULAR

当前视图

正在加载3D地球...

About Starlink 30588

Starlink 30588 (NORAD 58062) is a starlink constellation satellite (v2 mini) launched Oct 13, 2023 by SPXS of US. It operates in LEO, CIRCULAR orbit with a mass of 730.00 kg.

关于 Starlink 30588

正在加载描述...

即将过境

Passes for default location (London). Set your location on the main map for personalized predictions.

高度历史

Loading altitude history...

两行轨道根数

1 58062U 23158M 26178.16824259 -.00001076 00000-0 -29613-4 0 9992
2 58062 43.0037 128.7418 0000773 250.7776 109.2992 15.27573730150314
Epoch: Jun 27, 2026 • Age: 13 hours

当前状态

高度 482.4 km
速度 7.63 km/s
星下点 11.36°N, 27.63°W
发射日期 Oct 13, 2023
运行时间 2.7 years
类型 internet

技术详情

分类 Payload
质量 730.00 kg
干质量 700.00 kg
总质量 730.00 kg
长度 0.30 m
直径 4.10 m
跨度 29.00 m
形状 Box + pan
制造商 SPXS
平台类型 Starlink V2M
阶段状态 In Orbit
所有者/国家 SPXS/US

Most Searched